Tracking 19564 objects as of 19-Mar-2019
HD Live streaming from Space Station
objects crossing your sky now

FENGYUN 1C DEB

Track FENGYUN 1C DEB now!
10-day predictions


NORAD ID: 30441
Int'l Code: 1999-025AFC
Perigee: 850.5 km
Apogee: 1,127.5 km
Inclination: 99.0 °
Period: 104.7 minutes
Semi major axis: 7359 km
RCS: 0.038 m2 (small)
Launch date: May 10, 1999
Source: People's Republic of China (PRC)
Launch site: Taiyaun Space Center, China (TSC)

Note: This is SATELLITE DEBRIS
aabbcc
Your satellite tracking list
Your tracking list is empty




NASA's NSSDC Master Catalog

Two Line Element Set (TLE):
1 30441U 99025AFC 19077.73324909 +.00000115 +00000-0 +14472-3 0  9996
2 30441 098.9501 252.1181 0188199 296.6482 061.5503 13.74948234610292
Source of the keplerian elements: AFSPC